Mount Airy, NC

4:35 PM EST on December 08, 2019 (GMT -0500)
Mount Airy-Surry County

Weather History for KMWK - June, 2019

Change the Weather History Date:

Sunday, June 9, 2019

  Actual Average (WUND) Record (WUND)
Temperature  
Mean Temperature 68 °F -  
Max Temperature 72 °F - - (-1)
Min Temperature 65 °F - - (-1)
Cooling Degree Days 4    
Growing Degree Days 18 (Base 50)    
Moisture  
Dew Point 66 °F    
Average Humidity 90    
Maximum Humidity 91    
Minimum Humidity 87    
Precipitation  
Precipitation 0.47 in - - ()
Sea Level Pressure  
Sea Level Pressure 30.07 in    
Wind  
Wind Speed 9 mph ()    
Max Wind Speed 16 mph    
Max Gust Speed 24 mph    
Visibility 8.5 miles    
Events Rain    
Averages and records for this station are not official NWS values.
T = Trace of Precipitation, MM = Missing Value Source: Averaged Metar Reports

Daily Weather History Graph

Daily Weather History Graph

Search for Another Location

Airport or City:

Astronomy

Jun. 09, 2019 Rise Set
Actual Time 6:03 AM EDT 8:39 PM EDT
Civil Twilight 5:33 AM EDT 9:09 PM EDT
Nautical Twilight 4:55 AM EDT 9:47 PM EDT
Astronomical Twilight 4:14 AM EDT 10:29 PM EDT
Moon 12:34 PM EDT (6/9) 1:23 AM EDT (6/9)
Length of Visible Light 15h 36m
Length of Day
14h 35m
Waxing Crescent, 43% of the Moon is Illuminated
Jun 9
Waxing Crescent
Jun 10
First Quarter
Jun 17
Full
Jun 25
Last Quarter
Jul 2
New

Hourly Weather History & Observations

Time (EDT) Temp. Dew Point Humidity Pressure Visibility Wind Dir Wind Speed Gust Speed Precip Events Conditions
12:00 AM 68.9 °F 66.2 °F 91% 30.06 in 4.0 mi East 9.2 mph - 0.02 in Rain Rain
12:20 AM 68.9 °F 65.8 °F 90% 30.06 in 10.0 mi East 8.1 mph - 0.19 in Rain Light Rain
12:40 AM 68.9 °F 66.0 °F 90% 30.06 in 10.0 mi ENE 8.1 mph - 0.22 in Rain Light Rain
1:00 AM 69.1 °F 66.2 °F 91% 30.05 in 10.0 mi East 8.1 mph - N/A   Overcast
1:20 AM 69.1 °F 66.2 °F 91% 30.05 in 10.0 mi East 9.2 mph 16.1 mph N/A   Light Drizzle
1:40 AM 68.9 °F 66.2 °F 91% 30.05 in 7.0 mi East 10.4 mph 16.1 mph 0.02 in   Drizzle
2:00 AM 68.9 °F 66.2 °F 91% 30.05 in 7.0 mi East 8.1 mph - 0.01 in Rain Light Rain
2:20 AM 68.9 °F 66.2 °F 91% 30.04 in 10.0 mi ENE 13.8 mph 19.6 mph 0.04 in   Overcast
2:40 AM 68.9 °F 66.2 °F 91% 30.04 in 7.0 mi East 10.4 mph - 0.05 in   Light Drizzle
3:00 AM 69.1 °F 66.2 °F 91% 30.03 in 4.0 mi East 11.5 mph 19.6 mph N/A Rain Light Rain
3:20 AM 69.1 °F 66.2 °F 91% 30.04 in 7.0 mi ENE 9.2 mph - 0.01 in   Overcast
3:40 AM 69.1 °F 66.2 °F 91% 30.03 in 5.0 mi East 9.2 mph 18.4 mph 0.02 in   Drizzle
4:00 AM 68.9 °F 66.2 °F 91% 30.03 in 3.0 mi East 8.1 mph 17.3 mph N/A   Drizzle
4:20 AM 68.9 °F 66.0 °F 90% 30.03 in 4.0 mi East 10.4 mph 20.7 mph N/A Rain Light Rain
4:40 AM 68.9 °F 65.8 °F 90% 30.04 in 2.5 mi East 13.8 mph 19.6 mph 0.02 in Rain Rain
5:00 AM 68.5 °F 65.7 °F 90% 30.03 in 5.0 mi East 11.5 mph 17.3 mph N/A Rain Rain
5:20 AM 68.5 °F 65.7 °F 90% 30.03 in 7.0 mi East 12.7 mph 16.1 mph 0.13 in Rain Rain
5:40 AM 68.5 °F 65.7 °F 90% 30.03 in 7.0 mi East 11.5 mph 18.4 mph 0.24 in Rain Rain
6:00 AM 68.4 °F 65.5 °F 90% 30.04 in 7.0 mi East 11.5 mph 19.6 mph N/A Rain Rain
6:20 AM 68.2 °F 65.3 °F 90% 30.04 in 7.0 mi ENE 11.5 mph 17.3 mph 0.06 in Rain Rain
6:40 AM 68.0 °F 65.3 °F 91% 30.04 in 10.0 mi ENE 13.8 mph 21.9 mph 0.10 in   Overcast
7:00 AM 68.0 °F 65.3 °F 91% 30.06 in 5.0 mi ENE 12.7 mph 21.9 mph N/A   Overcast
7:20 AM 67.1 °F 64.4 °F 91% 30.07 in 5.0 mi ENE 12.7 mph 18.4 mph N/A   Overcast
7:40 AM 66.4 °F 63.7 °F 91% 30.07 in 7.0 mi ENE 12.7 mph 23.0 mph N/A   Overcast
8:00 AM 66.2 °F 63.5 °F 91% 30.08 in 3.0 mi ENE 11.5 mph 21.9 mph N/A   Light Drizzle
8:20 AM 66.2 °F 63.3 °F 90% 30.07 in 2.5 mi ENE 16.1 mph 24.2 mph N/A   Overcast
8:40 AM 66.2 °F 63.1 °F 90% 30.08 in 4.0 mi ENE 12.7 mph 19.6 mph N/A   Overcast
9:00 AM 65.8 °F 63.0 °F 90% 30.09 in 4.0 mi ENE 16.1 mph 21.9 mph N/A   Overcast
9:20 AM 66.2 °F 63.1 °F 90% 30.09 in 10.0 mi ENE 13.8 mph 20.7 mph N/A   Overcast
9:40 AM 66.2 °F 63.5 °F 91% 30.09 in 10.0 mi ENE 12.7 mph 18.4 mph N/A   Overcast
10:00 AM 66.7 °F 63.9 °F 90% 30.09 in 10.0 mi ENE 12.7 mph 21.9 mph N/A   Overcast
10:20 AM 67.8 °F 64.8 °F 90% 30.08 in 10.0 mi ENE 15.0 mph 20.7 mph 0.02 in   Overcast
10:40 AM 67.8 °F 64.8 °F 90% 30.09 in 10.0 mi East 13.8 mph 20.7 mph 0.02 in   Overcast
11:00 AM 68.0 °F 64.9 °F 90% 30.09 in 10.0 mi ENE 15.0 mph 19.6 mph N/A   Overcast
11:20 AM 67.5 °F 64.4 °F 90% 30.09 in 7.0 mi ENE 10.4 mph - N/A Rain Light Rain
11:40 AM 67.3 °F 64.4 °F 90% 30.10 in 10.0 mi ENE 16.1 mph 20.7 mph N/A   Light Drizzle
12:00 PM 67.5 °F 64.4 °F 90% 30.10 in 10.0 mi East 10.4 mph 19.6 mph N/A   Light Drizzle
12:20 PM 68.0 °F 64.9 °F 90% 30.10 in 10.0 mi ENE 8.1 mph 16.1 mph N/A Rain Light Rain
12:40 PM 68.0 °F 65.1 °F 90% 30.10 in 10.0 mi ENE 4.6 mph 9.2 mph N/A   Overcast
1:00 PM 68.4 °F 65.3 °F 90% 30.10 in 10.0 mi ENE 8.1 mph - N/A   Overcast
1:20 PM 69.3 °F 66.2 °F 90% 30.09 in 10.0 mi East 6.9 mph - N/A Rain Light Rain
1:40 PM 69.3 °F 66.2 °F 90% 30.09 in 10.0 mi East 11.5 mph - N/A   Overcast
2:00 PM 69.8 °F 66.4 °F 89% 30.08 in 10.0 mi ENE 8.1 mph - N/A   Overcast
2:20 PM 69.8 °F 66.6 °F 89% 30.07 in 10.0 mi ENE 6.9 mph - N/A   Overcast
2:40 PM 70.0 °F 66.6 °F 89% 30.07 in 10.0 mi ENE 6.9 mph - N/A   Overcast
3:00 PM 70.7 °F 67.1 °F 88% 30.07 in 10.0 mi East 9.2 mph - N/A   Overcast
3:20 PM 71.1 °F 67.1 °F 87% 30.07 in 10.0 mi ENE 10.4 mph - N/A   Overcast
3:40 PM 72.0 °F 67.8 °F 87% 30.07 in 10.0 mi ENE 9.2 mph 18.4 mph N/A   Overcast
4:00 PM 71.1 °F 67.3 °F 88% 30.07 in 10.0 mi ENE 8.1 mph 18.4 mph N/A   Overcast
4:20 PM 71.2 °F 67.3 °F 87% 30.07 in 10.0 mi ENE 8.1 mph 16.1 mph N/A   Overcast
4:40 PM 72.3 °F 68.2 °F 87% 30.07 in 10.0 mi ENE 10.4 mph - N/A   Overcast
5:00 PM 71.1 °F 67.5 °F 88% 30.07 in 10.0 mi East 8.1 mph - N/A   Overcast
5:20 PM 70.7 °F 67.1 °F 88% 30.06 in 10.0 mi ENE 10.4 mph - N/A   Overcast
5:40 PM 70.7 °F 67.1 °F 88% 30.06 in 10.0 mi ENE 5.8 mph - N/A   Overcast
6:00 PM 70.7 °F 67.3 °F 89% 30.06 in 10.0 mi ENE 5.8 mph - N/A   Overcast
6:20 PM 70.7 °F 67.3 °F 89% 30.06 in 10.0 mi ENE 8.1 mph - N/A   Overcast
6:40 PM 70.3 °F 67.1 °F 89% 30.06 in 10.0 mi ENE 6.9 mph - N/A   Overcast
7:00 PM 70.2 °F 67.1 °F 90% 30.06 in 10.0 mi ENE 8.1 mph - N/A   Overcast
7:20 PM 70.2 °F 67.1 °F 90% 30.06 in 10.0 mi ENE 9.2 mph - N/A   Overcast
7:40 PM 70.3 °F 67.1 °F 89% 30.06 in 10.0 mi ENE 6.9 mph - N/A   Overcast
8:00 PM 70.2 °F 67.1 °F 90% 30.07 in 10.0 mi NE 5.8 mph - N/A   Overcast
8:20 PM 69.8 °F 66.7 °F 90% 30.06 in 10.0 mi ENE 6.9 mph - N/A   Overcast
8:40 PM 69.8 °F 66.6 °F 89% 30.07 in 10.0 mi ENE 3.5 mph - N/A   Overcast
9:00 PM 69.4 °F 66.4 °F 90% 30.07 in 10.0 mi East 3.5 mph - N/A   Overcast
9:20 PM 69.3 °F 66.2 °F 90% 30.07 in 10.0 mi ENE 3.5 mph - N/A   Overcast
9:40 PM 69.3 °F 66.2 °F 90% 30.08 in 10.0 mi East 4.6 mph - N/A   Overcast
10:00 PM 69.3 °F 66.2 °F 90% 30.08 in 10.0 mi East 3.5 mph - N/A   Overcast
10:20 PM 69.3 °F 66.2 °F 90% 30.08 in 10.0 mi ENE 8.1 mph - N/A   Overcast
10:40 PM 69.3 °F 66.2 °F 90% 30.07 in 10.0 mi NE 4.6 mph - N/A   Overcast
11:00 PM 69.3 °F 66.2 °F 90% 30.07 in 10.0 mi ENE 5.8 mph - N/A   Overcast
11:20 PM 69.8 °F 66.6 °F 89% 30.07 in 10.0 mi Calm Calm - N/A   Overcast
11:40 PM 69.4 °F 66.4 °F 90% 30.06 in 10.0 mi NE 3.5 mph - N/A   Overcast